Home > Weather > St. Catharines > Past weeks

Flag for Canada Weather for the Past 2 Weeks in St. Catharines, Ontario, Canada

Now
14 °F

Partly sunny.


Feels Like: -3 °F
Forecast: 13 / 17 °F
Wind: 17 mph from Northwest

Location: Saint Catharines Airport

Current Time: Feb 11, 2016 at 12:53:48 PM

Latest Report: Feb 11, 2016 at 12:00 PM


Visibility: 15 mi

Pressure: 30.10 "Hg

Humidity: 48%

Dew point: -2 °F

Location of St. CatharinesLocation

Historic Weather in St. Catharines — Graph

°F

St. Catharines Temperature Yesterday

Maximum temperature yesterday: 28 °F (at 12:00 PM)
Minimum temperature yesterday: 18 °F (at 8:00 PM)
Average temperature yesterday: 24 °F

High & Low Weather Summary for the Past Weeks

 TemperatureHumidityPressure
High59 °F (Feb 3, 1:00 PM)100% (Feb 2, 7:00 AM)30.36 "Hg (Feb 2, 7:00 AM)
Low10 °F (Feb 11, 7:00 AM)50% (Feb 7, 2:00 PM)29.50 "Hg (Feb 9, 2:00 PM)
Average36 °F72%29.87 "Hg
* Reported Jan 27 11:00 AM — Feb 11 11:00 AM, St. Catharines, Weather by CustomWeather, © 2016

Note: Actual official high and low records may vary slightly from our data, if they occured in-between our weather recording intervals... More about our weather records

Advertising

St. Catharines Weather History for the Previous 24 Hours

 ConditionsComfort  
Time TempWeatherWind HumidityBarometerVisibility
11:00 AM
Thu, Feb 11
12 °FPartly sunny.15 mph57%30.09 "Hg15 mi
10:00 AM10 °FPartly sunny.15 mph56%30.06 "Hg15 mi
9:00 AM10 °FPartly sunny.21 mph61%30.04 "Hg15 mi
8:00 AM10 °FPartly sunny.20 mph61%30.02 "Hg15 mi
7:00 AM10 °FPassing clouds.17 mph61%29.98 "Hg15 mi
9:00 PM
Wed, Feb 10
18 °FLight snow. Overcast.18 mph79%29.84 "Hg4 mi
8:00 PM18 °FLight snow. Mostly cloudy.15 mph79%29.82 "Hg6 mi
7:00 PM19 °FLight snow. Overcast.17 mph73%29.81 "Hg8 mi
6:00 PM19 °FLight snow. Overcast.24 mph79%29.78 "Hg8 mi
5:00 PM23 °FLight snow. More clouds than sun.17 mph74%29.75 "Hg10 mi
4:00 PM23 °FLight snow. Mostly cloudy.21 mph80%29.72 "Hg10 mi
3:00 PM25 °FLight snow. Mostly cloudy.21 mph80%29.69 "Hg5 mi
2:47 PM25 °FLight snow. Mostly cloudy.14 mph86%29.68 "Hg4 mi
2:00 PM27 °FLight snow. Overcast.15 mph86%29.67 "Hg5 mi
1:00 PM28 °FLight snow. Overcast.14 mph74%29.66 "Hg10 mi
12:00 PM28 °FLight snow. Mostly cloudy.17 mph74%29.67 "Hg7 mi
Weather by CustomWeather, © 2016

See weather overviewHow to use our weather pages